AirNav   Air Wisconsin pilot careers
 
 753 users online  

I62 Brookville Air-Park Airport
Brookville, Ohio, USA

GOING TO BROOKVILLE?


FAA INFORMATION EFFECTIVE 11 OCTOBER 2018

Location

FAA Identifier: I62
Lat/Long: 39-51-45.1910N / 084-25-59.8140W
39-51.753183N / 084-25.996900W
39.8625531 / -84.4332817
(estimated)
Elevation: 1037 ft. / 316.1 m (surveyed)
Variation: 04W (1985)
From city: 2 miles NW of BROOKVILLE, OH
Time zone: UTC -4 (UTC -5 during Standard Time)
Zip code: 45309

Airport Operations

Airport use: Open to the public
Activation date: 04/1949
Control tower: no
ARTCC: INDIANAPOLIS CENTER
FSS: DAYTON FLIGHT SERVICE STATION
NOTAMs facility: DAY (NOTAM-D service available)
Attendance: UNATNDD
Wind indicator: yes
Segmented circle: no
Lights: SS-SR

Airport Communications

CTAF/UNICOM: 122.8
COLUMBUS APPROACH: 118.425 [0600-0000]
COLUMBUS DEPARTURE: 118.425 [0600-0000]
WX ASOS at DAY (10 nm E): PHONE 937-415-6819
WX ASOS at MGY (19 nm SE): 118.375 (937-885-2171)
WX AWOS-3 at MWO (20 nm S): 120.025 (513-422-3505)
WX AWOS-3 at RID (20 nm W): 121.225 (765-983-1903)

Nearby radio navigation aids

VOR radial/distance  VOR name  Freq  Var
DQNr191/9.4DAYTON VOR/DME114.5001W
RIDr074/19.8RICHMOND VORTAC110.6003W
SGHr277/27.1SPRINGFIELD VOR/DME113.2004W
RODr220/31.2ROSEWOOD VORTAC117.5005W
MXQr316/39.1MIDWEST VOR/DME112.9004W

 
NDB name  Hdg/Dist  Freq  Var  ID
BRUNY288/4.631506WAT .- -
HOOK FIELD006/21.823904WHKF .... -.- ..-.
CLARK COUNTY273/30.134104WCCJ -.-. -.-. .---
MADEIRA359/38.637904WMDE -- -.. .

Airport Services

Runway Information

Runway 9/27

Dimensions: 2500 x 30 ft. / 762 x 9 m
Surface: asphalt, in fair condition
PAVEMENT CONDITION - CHIP SEAL.
Runway edge lights: low intensity
RUNWAY 9  RUNWAY 27
Latitude: 39-51.742333N39-51.763833N
Longitude: 084-26.263500W084-25.730000W
Elevation: 1040.0 ft.1040.0 ft.
Traffic pattern: leftleft
Markings: nonenone
Obstructions: 15 ft. road, 289 ft. from runway, 134 ft. left of centerline, 5:1 slope to clear
44 FT TREES 0 FT FM RY END 60 FT R. CROPS IN GROWING SEASON.
43 ft. trees, 201 ft. from runway, 57 ft. left of centerline
23 - 43 FT BRUSH & TREES 158-200 FT FM 71 FT R-125 FT L; +10 FT PVT RD 140 FT FM 125 FT R-125 FT L.

Airport Ownership and Management from official FAA records

Ownership: Privately-owned
Owner: MICHAEL SCHANEY
10491 PLEASANT PLAIN RD
BROOKVILLE, OH 45309
Phone (937) 409-1963
Manager: MICHAEL SCHANEY
10491 PLEASANT PLAIN RD
BROOKVILLE, OH 45309
Phone (937) 409-1963

Airport Operational Statistics

Aircraft based on the field: 1
Single engine airplanes: 1
    
Aircraft operations: 150/year *
100% local general aviation
* for 12-month period ending 03 September 2016

Additional Remarks

DEER ON & INVOF ARPT.
COLUMBUS APCH CTL TEL# 614-338-8537.

Instrument Procedures

There are no published instrument procedures at I62.

Some nearby airports with instrument procedures:

3I7 - Dayton-Phillipsburg Airport (3 nm NE)
KDAY - James M Cox Dayton International Airport (10 nm E)
KFFO - Wright-Patterson Air Force Base (18 nm E)
I17 - Piqua Airport - Hartzell Field (19 nm N)
KMGY - Dayton-Wright Brothers Airport (19 nm SE)
KMWO - Middletown Regional Airport/Hook Field (20 nm S)
KRID - Richmond Municipal Airport (20 nm W)
 
Loc | Ops | Rwys | IFR | FBO | Links
Com | Nav | Svcs | Stats | Notes


 
Area around I62 (Brookville Air-Park Airport)
 
Road maps at: MapQuest Bing Google
 
Aerial photo
WARNING: Photo may not be current or correct
Aerial photo of I62 (Brookville Air-Park Airport)
Photo by Gary Chambers
Photo taken 03-Oct-2004
from the south looking north.cNotice how the taxiway connecting the runway with the terminal area crosses a road. Look both ways!

Do you have a better or more recent aerial photo of Brookville Air-Park Airport that you would like to share? If so, please send us your photo.

 
Sectional chart

 
Airport distance calculator
Flying to Brookville Air-Park Airport? Find the distance to fly.

From to I62

Sunrise and sunset
Times for 19-Oct-2018
 Local
(UTC-4)
 Zulu
(UTC)
Morning civil twilight07:2611:26
Sunrise07:5311:53
Sunset18:5222:52
Evening civil twilight19:2023:20

Current date and time
Zulu (UTC)  20-Oct-2018 03:48:19
Local (UTC-4)  19-Oct-2018 23:48:19
 
METAR
KDAY 
10nm E 
200256Z 23014KT 10SM BKN013 OVC038 08/07 A2995 RMK AO2 SLP144 60011 T00830067 58014
KMGY 
18nm SE 
200314Z AUTO 23009KT 10SM BKN012 OVC021 09/06 A2995 RMK AO2 T00890061
KFFO 
19nm E 
200316Z AUTO 21010KT 10SM BKN012 OVC032 08/07 A2994 RMK AO2 SLP143 $
KRID 
20nm W 
200335Z AUTO 25013G18KT 4SM BR OVC006 07/07 A2994 RMK AO2
KMWO 
20nm S 
200335Z AUTO 21008KT 10SM OVC012 09/08 A2997 RMK AO2 T00870076
TAF
KDAY 
10nm E 
192254Z 1923/2018 22012G18KT P6SM -SHRA OVC060 FM200100 23012G20KT P6SM -SHRA OVC025 FM200300 24014G24KT P6SM VCSH OVC015 FM200700 25012G20KT P6SM VCSH OVC008 FM201400 27014G22KT P6SM SCT012 BKN022 FM201600 28016G28KT P6SM BKN040
KFFO 
19nm E 
200035Z 2000/2101 26012KT 9999 OVC020 QNH2988INS TEMPO 2000/2003 30015G25KT BECMG 2014/2015 29015G25KT 9999 SCT050 QNH2980INS BECMG 2020/2021 28015KT 9000 -SHRA OVC020 QNH2987INS TX16/2019Z TN08/2009Z
NOTAMs
Click for the latest NOTAMs
NOTAMs are issued by the DoD/FAA and will open in a separate window not controlled by AirNav.

 

 
 

Would you like to see your business listed on this page?

 If your business provides an interesting product or service to pilots, flight crews, aircraft, or users of the Brookville Air-Park Airport, you should consider listing it here.  To start the listing process, click on the button below
 
Add a business
 

Other Pages about Brookville Air-Park Airport

Update a link
 
Copyright © AirNav, LLC. All rights reserved. Privacy Policy  Contact